Regional Weather Roundup
Issued by NWS

Home | Current Version | Previous Version | Text Only | Print | Product List | Glossary On
Versions: 1 2 3 4 5 6 7 8 9 10 11 12 13 14 15 16 17 18 19 20 21 22 23 24 25 26 27 28 29 30 31 32 33 34 35 36 37 38 39 40 41 42 43 44 45 46 47 48 49 50
000
ASUS45 KREV 280010
RWRNV
NEVADA REGIONAL WEATHER ROUNDUP
NATIONAL WEATHER SERVICE RENO NV
500 PM PDT TUE JUN 27 2017

NOTE: "FAIR" INDICATES FEW OR NO CLOUDS BELOW 12,000 FEET WITH NO
SIGNIFICANT WEATHER AND/OR OBSTRUCTIONS TO VISIBILITY.

NVZ001-003-004-280100-
WESTERN NEVADA

CITY           SKY/WX    TMP DP  RH WIND       PRES   REMARKS
RENO           SUNNY     88  29  12 W14G25    29.96F
6HR MIN TEMP:  80; 6HR MAX TEMP:  91;

CARSON CITY    FAIR      84  32  15 W12G20    30.01F
MINDEN         FAIR      84  32  15 W20G26    29.99F
FALLON         SUNNY     91   8   4 W8        29.89F
6HR MIN TEMP:  80; 6HR MAX TEMP:  92;

LOVELOCK       SUNNY     88  23   9 S8        29.90F
6HR MIN TEMP:  80; 6HR MAX TEMP:  89;

HAWTHORNE      SUNNY     91  12   5 N9G15     29.89F
$$

NVZ002-CAZ072-073-280100-
NORTHERN AND CENTRAL SIERRA

CITY           SKY/WX    TMP DP  RH WIND       PRES   REMARKS
S. LAKE TAHOE  SUNNY     75  36  24 SW9G21    30.12F
6HR MIN TEMP:  73; 6HR MAX TEMP:  77;

TRUCKEE        SUNNY     75  28  17 SW14G23   30.11F
SQUAW VLY 8000   N/A     57  34  41 SW8         N/A
SUSANVILLE     SUNNY     84  32  15 S14G22    29.96F
MAMMOTH LAKES  FAIR      79  20  11 W17       30.17F
6HR MIN TEMP:  76; 6HR MAX TEMP:  81;

BRIDGEPORT     FAIR      77  25  14 SW12G18   30.13F
$$

NVZ030-031-036-280100-
NORTHERN NEVADA

CITY           SKY/WX    TMP DP  RH WIND       PRES   REMARKS
ELKO           SUNNY     87  17   7 W9        29.96F
6HR MIN TEMP:  79; 6HR MAX TEMP:  88;

WINNEMUCCA     SUNNY     89  21   8 SW17G24   29.91F
6HR MIN TEMP:  81; 6HR MAX TEMP:  90;

$$

NVZ035-037-280100-
CENTRAL NEVADA

CITY           SKY/WX    TMP DP  RH WIND       PRES   REMARKS
ELY            SUNNY     86  31  13 SW7       30.01F
6HR MIN TEMP:  79; 6HR MAX TEMP:  89;

EUREKA           N/A     86  15   7 SW8       30.00F
6HR MIN TEMP:  75; 6HR MAX TEMP:  88;

$$

NVZ013-014-280100-
SOUTH CENTRAL NEVADA

CITY           SKY/WX    TMP DP  RH WIND       PRES   REMARKS
TONOPAH        SUNNY     91  13   5 NW12G20   29.98F
6HR MIN TEMP:  83; 6HR MAX TEMP:  92;

$$

NVZ017-020-022-280100-
SOUTHERN NEVADA

CITY           SKY/WX    TMP DP  RH WIND       PRES   REMARKS
LAS VEGAS      SUNNY    106   4   2 SW13G20   29.71F
6HR MIN TEMP:  96; 6HR MAX TEMP: 107;

N. LAS VEGAS   SUNNY    106  12   3 W15G21    29.70F
6HR MIN TEMP:  95; 6HR MAX TEMP: 107;

NELLIS AFB     SUNNY    106  21   5 SW14G20   29.67F
6HR MIN TEMP:  95; 6HR MAX TEMP: 106;

HENDERSON      SUNNY    104  23   5 SW15G22   29.76F
6HR MIN TEMP:  96; 6HR MAX TEMP: 106;

MERCURY        SUNNY    100  19   5 S20G26    29.81F
6HR MIN TEMP:  91; 6HR MAX TEMP: 102;

$$



USA.gov is the U.S. government's official web portal to all federal, state and local government web resources and services.